This is the latest recevied weather packets stored in our database for station/object KB9HUO. If no packets are shown the sender has not sent any weather packets the latest 10 day(s).
| Time | Temp. | Humidity | Pressure | Rain* | Wind** | Luminosity | Snow |
|---|---|---|---|---|---|---|---|
| 1778162538 | 11.67° C | 49% | 1017.9 hPa | 0 mm | - | 44 W/m² | - |
| 1778162235 | 11.11° C | 57% | 1017.8 hPa | 0 mm | - | 68 W/m² | - |
| 1778161932 | 11.11° C | 60% | 1017.7 hPa | 0 mm | - | 42 W/m² | - |
| 1778161628 | 11.11° C | 57% | 1017.6 hPa | 0 mm | - | 41 W/m² | - |
| 1778161324 | 10.56° C | 68% | 1017.9 hPa | 0 mm | - | 67 W/m² | - |
| 1778161020 | 10.56° C | 71% | 1017.8 hPa | 0 mm | - | 39 W/m² | - |
| 1778160718 | 10° C | 78% | 1017.8 hPa | 0 mm | - | 39 W/m² | - |
| 1778160415 | 9.44° C | 78% | 1017.8 hPa | 0 mm | - | 43 W/m² | - |
| 1778160111 | 8.89° C | 85% | 1017.8 hPa | 0 mm | - | 38 W/m² | - |
| 1778159808 | 8.33° C | 89% | 1017.6 hPa | 0 mm | - | 37 W/m² | - |
| 1778159506 | 7.78° C | 94% | 1017.7 hPa | 0 mm | - | 48 W/m² | - |
| 1778159202 | 7.78° C | 97% | 1017.5 hPa | 0 mm | - | 35 W/m² | - |
| 1778158900 | 7.78° C | 98% | 1017.6 hPa | 0 mm | - | 34 W/m² | - |
| 1778158599 | 7.78° C | 98% | 1017.6 hPa | 0 mm | - | 33 W/m² | - |
| 1778158296 | 7.22° C | 98% | 1017.4 hPa | 0 mm | - | 32 W/m² | - |
| 1778157992 | 6.67° C | 98% | 1017.5 hPa | 0 mm | - | 31 W/m² | - |
| 1778157690 | 6.67° C | 98% | 1017.3 hPa | 0 mm | - | 30 W/m² | - |
| 1778157388 | 6.11° C | 98% | 1017.4 hPa | 0 mm | - | 30 W/m² | - |
| 1778157085 | 6.11° C | 98% | 1017.5 hPa | 0 mm | - | 29 W/m² | - |
| 1778156780 | 5.56° C | 98% | 1017.6 hPa | 0 mm | - | 28 W/m² | - |
| 1778156476 | 5.56° C | 98% | 1017.4 hPa | 0 mm | - | 27 W/m² | - |
| 1778156172 | 5.56° C | 98% | 1017.6 hPa | 0 mm | - | 26 W/m² | - |
| 1778155868 | 5° C | 98% | 1017.4 hPa | 0 mm | - | 25 W/m² | - |
| 1778155564 | 5° C | 98% | 1017.5 hPa | 0 mm | - | 25 W/m² | - |
| 1778155261 | 4.44° C | 98% | 1017.2 hPa | 0 mm | - | 24 W/m² | - |
* Rain latest hour (hover to see other rain measurements)
** Current wind speed in m/s (hover to see current wind gust speed)